Погода в Киеве

Погода в Киеве : погода сейчас, прогноз погоды и архив. Всё, что Вы хотите узнать о погоде в Киеве!

Хотите узнать прогноз погоды в Киеве? Тогда Вам сюда: Погода в Киеве

Поиск расширенной информации на нашем сайте:

Другие новости

Новости СМИ2

Главная страница сайта

Новости сайта

03.07.2017

Напоминаем, что на нашем специализированном сайте Метеоцентр.Азия вы можете получить высокодетализированные автоматические прогнозы погоды по пунктам России, СНГ и мира в авиационном формате (включающие направление и скорость ветра, видимость, явления погоды, количество и форму облачности, нижнюю и верхнюю границу облачности).

Рекомендуем: ремонт квартир цены

Погода в Киеве - сегодня

Время (UTC), дата Ветер
(°,м/с) 
Видим.   Явления Облачность Т
(°С)
Тd
(°С)
f(%) Тe
(°С)
Pmin
(гПа)
dP
(гПа)
Po
(мм)
O2
(г/м3)
Тmin Tmax R s Состояние
почвы
21 19.02.18 250 (З) 20000 м    9/6 600 м средняя 
[Sc|Ac As]
-1.9 -6.1 73 -5  1024.6  -0.3  752  306           
00 20.02.18 270 (З) 10 км    8/3 600 м средняя 
[Sc|Ac trans]
-2.8 -6.6 75 -5  1025  0.3  753  307           
03 20.02.18 280 (З) 10 км  слаб. снег  9/0 средняя 
[Ac As]
-3.1 -5.8 82 -4  1024.9  -0.1  753  307           
06 20.02.18 220 (ЮЗ) 10 км  {снег}  10/10 330 м 
[St]
-3 -5.4 83 -3  1025.6  0.7  753  307  -3.2    0.0  равномерный
мокрый или
старый снег
100% 
09 20.02.18 180 (Ю) 20000 м  {снег}  9/9 420 м 
[Sc]
-0.9 -4.8 75 -2  1025.8  0.3  753  305           
12 20.02.18 190 (Ю) 20000 м  {ливн. осадки, снег}  9/9 300 м кучево-дожд. 
[Cb calv]
-0.1 -4.9 70 -1  1024.8  -0.9  753  304      0.0     
15 20.02.18 260 (З) 20000 м    9/9 600 м 
[Sc]
+0.1 -4.3 72 -1  1024.2  -0.5  752  304           
18 20.02.18 260 (З) 20000 м    10/10 600 м 
[Sc]
-0.7 -4.2 77 -2  1024.6  0.3  753  304    +1.1  0.0     
21 20.02.18 290 (З) 20000 м    10/10 420 м 
[St]
-1.2 -4.8 76 -2  1024.7  753  305           
00 21.02.18 060 (СВ) 20000 м    10/10 420 м 
[St]
-1.7 -4.8 79 -1  1025.1  0.4  753  306           
03 21.02.18 тихо ()   10 км    10/10 400 м 
[St]
-2.6 -4.5 87 -3  1024.7  -0.5  752  307           
06 21.02.18 150 (ЮВ) 4000 м  дымка  9/9 700 м 
[Sc]
-2.8 -4.4 89 -4  1024.8  0.1  753  307  -2.8      равномерный
мокрый или
старый снег
100% 
09 21.02.18 150 (ЮВ) 20000 м    9/0 средняя, верхняя 
[Ac trans|Cs]
-0.2 -5 70 -1  1024.6  753  304           
12 21.02.18 110 (В) 20000 м    9/3 600 м верхняя 
[Sc|Cs]
+1.1 -6.1 59 1023.8  -0.7  752  302           
15 21.02.18 140 (ЮВ) 20000 м    10/0 верхняя 
[Cs]
-1.2 -6.3 68 -2  1023.3  -0.6  752  305           
18 21.02.18 120 (ЮВ) 10 км  слаб. снег  10/10 400 м 
[Frnb|Ns]
-2.6 -5.2 82 -4  1024.2  0.7  752  307    +1.6  0.0     
21 21.02.18 110 (В) 4000 м  слаб. снег  10/10 300 м 
[Frnb|Ns]
-3.6 -5.1 89 -3  1024.4  0.2  752  308           
00 22.02.18 110 (В) 4000 м  слаб. снег  10/10 270 м 
[Frnb|Ns]
-4.3 -5.5 91 -4  1024.7  0.2  752  309         
03 22.02.18 130 (ЮВ) 4000 м  в посл. час снег  10/6 270 м средняя 
[Frnb|As op]
-5.6 -6.7 92 -5  1024.3  -0.5  752  310           
09 22.02.18 130 (ЮВ) 10 км  в посл. час снег  10/10 330 м 
[Frnb|Ns]
-4.4 -6.7 84 -4  1025.1  0.4  753  309           
12 22.02.18 130 (ЮВ) 20000 м  {снег}  10/10 570 м 
[Sc]
-3 -7.2 73 -4  1024.9  -0.1  753  307      0.0     
15 22.02.18 080 (В) 20000 м    10/10 540 м 
[Sc]
-3.5 -7.5 74 -3  1024.7  -0.2  752  308           
18 22.02.18 070 (В) 20000 м    10/10 540 м 
[Sc]
-4.5 -6.8 84 -6  1025.1  0.3  753  309    -3  0.0     
00 23.02.18 100 (В) 4000 м  дымка{снег}  10/10 500 м 
[Sc]
-5.7 -7.1 90 -5  1025.3  753  311      0.0     
03 23.02.18 050 (СВ) 4000 м  дымка  10/10 500 м 
[Sc]
-6.2 -7.7 89 -8  1024.8  -0.6  752  311           
Время (UTC), дата Ветер
(°,м/с) 
Видим.   Явления Облачность Т
(°С)
Тd
(°С)
f(%) Тe
(°С)
Pmin
(гПа)
dP
(гПа)
Po
(мм)
O2
(г/м3)
Тmin Tmax R s Состояние
почвы

Для получения пояснительной информации подведите курсор к названию столбца.

ПОГОДА в Киеве - архив

Всё, что Вы хотите узнать о погоде в Киеве - удобно и подробно!

Выберите нужную дату (начиная с 1 января 2015* года) и нажмите кнопку "Найти".
Будут отображены архивные сводки погоды по пункту Киев, начиная с указанной даты.


Отображать данные в формате CSV (для использования в таблицах Excel)


Внимание! Наш архив погоды предназначен исключительно для личного некоммерческого использования в познавательных целях. Если Вам необходимы официальные справки о состоянии погоды (для производственных, юридических, коммерческих и т.п. целей), обращайтесь в органы Росгидромета.

*Примечание: данная дата относится к архиву по метеостанциям СССР (Россия, СНГ, Балтия).
Архив по метеостанциям Зарубежной Европы и Азии (кроме Китая) хранится 10 дней, по другим регионам земного шара (Китай, Африка, Америка, Австралия, Океания) - 1 день.

Киев - район местоположения метеостанции


Название, широта, долгота, высота метеостанции:
Киев (город) 50.4°ш. 30.6°д. 167 м над ур. моря [Украина]

Дополнительная информация

В oтличие oт бoльшинства пoгoдных сайтoв мы публикуем пoдрoбную метеoинфoрмацию в детальнoм прoфессиoнальнoм фoрмате.

Характеристики температуры и влажнoсти вoздуха измеряются на высoте 2 м в тени вдали oт зданий и деревьев.
Скoрoсть ветра измеряется на высoте 10 м (на урoвне рoста челoвека скoрoсть ветра ниже в 1.5-2 раза). Если метеoстанция нахoдится в гoрoде или в лесу, тo скoрoсть ветра занижена на 2-4 м/с пo сравнению с oткрытым местoм. Скoрoсть ветра над акватoриями крупных рек и oзёр, а также на вершинах хoлмoв на 2-5 м/с выше, чем в oбычных услoвиях.
Атмoсфернoе давление в разных тoчках местнoсти мoжет значительнo oтличаться oт давления на метеoстанции, в зависимoсти oт услoвий рельефа (при пoдъёме на 10 м давление пoнижается примернo на 1 мм рт.ст.).